Terug naar catalogus

STARLINK-35076

ActiefCommunicatieSSO
NORAD 65457·PAYLOAD·🇺🇸 United States

Gelanceerd Sep 3, 2025 vanaf Vandenberg Space Force Base

Loading…

Volgende Passages (komende 24 uur)

TLE

VersSource: CelesTrak SupGP

Epoch: Sep 14, 2026, 15:30 UTC

1 65457C 25194Z   26257.64631944 -.00035203  00000+0 -10929-2 0  2571
2 65457  97.2842 107.4016 0001568  87.7350 239.7630 15.33452768    15

Volg STARLINK-35076 in realtime met AllMySat

Download on the App Store